Marshfield, WI

12:56 PM CST on February 24, 2018 (GMT -0600)
Marshfield Municipal

Weather History for KMFI - November, 2010

Change the Weather History Date:

Thursday, November 25, 2010

  Actual Average Record
Temperature  
Mean Temperature 22 °F -  
Max Temperature 33 °F 35 °F 55 °F (1988)
Min Temperature 12 °F 20 °F -15 °F (1950)
Degree Days  
Heating Degree Days 42    
Moisture  
Dew Point 19 °F    
Average Humidity 79    
Maximum Humidity 96    
Minimum Humidity 47    
Precipitation  
Precipitation 0.00 in - - ()
Sea Level Pressure  
Sea Level Pressure 29.71 in    
Wind  
Wind Speed 10 mph (West)    
Max Wind Speed 25 mph    
Max Gust Speed 34 mph    
Visibility 6 miles    
Events Snow    
Averages and records for this station are not official NWS values.
T = Trace of Precipitation, MM = Missing Value Source: NWS Daily Summary

Daily Weather History Graph

Daily Weather History Graph

Search for Another Location

Airport or City:

Trip Planner

Search our weather history database for the weather conditions in past years. The results will help you decide how hot, cold, wet, or windy it might be!

Date:

Astronomy

Nov. 25, 2010 Rise Set
Actual Time 7:10 AM CST 4:24 PM CST
Civil Twilight 6:38 AM CST 4:57 PM CST
Nautical Twilight 6:01 AM CST 5:33 PM CST
Astronomical Twilight 5:27 AM CST 6:08 PM CST
Moon 8:23 PM CST (11/25) 10:40 AM CST (11/25)
Length of Visible Light 10h 19m
Length of Day
9h 14m
Waning Gibbous, 82% of the Moon is Illuminated
Nov 25
Waning Gibbous
Nov 28
Last Quarter
Dec 5
New
Dec 13
First Quarter
Dec 21
Full

Hourly Weather History & Observations

Time (CST) Temp. Windchill Dew Point Humidity Pressure Visibility Wind Dir Wind Speed Gust Speed Precip Events Conditions
12:08 AM 33.8 °F 27.7 °F 32.0 °F 93% 29.66 in 3.0 mi SE 6.9 mph - N/A   Overcast
12:54 AM 33.1 °F 27.7 °F 32.0 °F 96% 29.70 in 4.0 mi South 5.8 mph - N/A   Overcast
1:22 AM 33.8 °F 28.6 °F 32.0 °F 93% 29.66 in 2.5 mi SSW 5.8 mph - N/A   Overcast
1:36 AM 33.8 °F 29.6 °F 32.0 °F 93% 29.66 in 1.5 mi SSW 4.6 mph - N/A   Overcast
1:52 AM 33.8 °F 29.6 °F 32.0 °F 93% 29.65 in 1.0 mi South 4.6 mph - N/A   Overcast
1:54 AM 33.1 °F 28.7 °F 32.0 °F 96% 29.69 in 1.0 mi South 4.6 mph - N/A   Overcast
2:25 AM 33.8 °F 28.6 °F 32.0 °F 93% 29.65 in 1.2 mi SSW 5.8 mph - N/A   Overcast
2:37 AM 33.8 °F 28.6 °F 32.0 °F 93% 29.65 in 0.8 mi SW 5.8 mph - N/A   Overcast
2:54 AM 33.1 °F 26.9 °F 32.0 °F 96% 29.70 in 0.8 mi SW 6.9 mph - N/A   Mist
3:09 AM 33.8 °F 28.6 °F 32.0 °F 93% 29.65 in 1.0 mi SW 5.8 mph - N/A   Overcast
3:20 AM 33.8 °F 27.7 °F 30.2 °F 87% 29.65 in 1.8 mi SW 6.9 mph - N/A   Overcast
3:25 AM 33.8 °F 28.6 °F 30.2 °F 87% 29.64 in 3.0 mi WSW 5.8 mph - N/A   Overcast
3:54 AM 33.1 °F 26.1 °F 30.9 °F 92% 29.70 in 6.0 mi West 8.1 mph - N/A   Overcast
4:14 AM 33.8 °F 29.6 °F 30.2 °F 87% 29.64 in 5.0 mi West 4.6 mph - 0.00 in Snow Light Snow
4:34 AM 33.8 °F 28.6 °F 30.2 °F 87% 29.65 in 8.0 mi West 5.8 mph - 0.00 in   Overcast
4:54 AM 33.1 °F 26.9 °F 30.9 °F 92% 29.69 in 8.0 mi West 6.9 mph - 0.00 in   Overcast
5:06 AM 33.8 °F 27.7 °F 30.2 °F 87% 29.65 in 8.0 mi West 6.9 mph - N/A   Overcast
5:54 AM 33.1 °F 25.5 °F 30.0 °F 89% 29.69 in 9.0 mi West 9.2 mph - N/A   Overcast
6:02 AM 33.8 °F 27.7 °F 30.2 °F 87% 29.65 in 9.0 mi West 6.9 mph - N/A   Overcast
6:33 AM 30.2 °F 19.3 °F 28.4 °F 93% 29.66 in 2.5 mi West 15.0 mph 21.9 mph N/A   Overcast
6:43 AM 30.2 °F 20.8 °F 28.4 °F 93% 29.68 in 4.0 mi West 11.5 mph 21.9 mph N/A   Overcast
6:52 AM 28.4 °F 15.8 °F 26.6 °F 93% 29.68 in 1.8 mi West 18.4 mph 25.3 mph N/A   Overcast
6:54 AM 28.0 °F 16.5 °F 26.1 °F 92% 29.73 in 1.5 mi West 15.0 mph 25.3 mph N/A   Overcast
7:05 AM 26.6 °F 13.4 °F 24.8 °F 93% 29.68 in 1.0 mi West 18.4 mph 26.5 mph N/A   Overcast
7:18 AM 26.6 °F 14.7 °F 24.8 °F 93% 29.70 in 1.8 mi WNW 15.0 mph 26.5 mph N/A   Overcast
7:25 AM 26.6 °F 14.7 °F 24.8 °F 93% 29.70 in 2.5 mi West 15.0 mph 23.0 mph N/A   Overcast
7:38 AM 24.8 °F 12.9 °F 23.0 °F 93% 29.71 in 3.0 mi West 13.8 mph - N/A   Overcast
7:54 AM 25.0 °F 12.6 °F 21.9 °F 88% 29.76 in 3.0 mi West 15.0 mph 19.6 mph N/A   Overcast
8:06 AM 23.0 °F 8.7 °F 17.6 °F 80% 29.71 in 6.0 mi West 18.4 mph 25.3 mph N/A   Haze
8:13 AM 23.0 °F 9.6 °F 17.6 °F 80% 29.71 in 8.0 mi WNW 16.1 mph 25.3 mph N/A   Overcast
8:24 AM 23.0 °F 9.6 °F 17.6 °F 80% 29.71 in 8.0 mi WNW 16.1 mph 24.2 mph N/A   Overcast
8:39 AM 23.0 °F 11.1 °F 17.6 °F 80% 29.71 in 6.0 mi WNW 12.7 mph - N/A   Haze
8:54 AM 21.0 °F 6.2 °F 16.0 °F 81% 29.77 in 5.0 mi West 18.4 mph 27.6 mph N/A   Haze
9:11 AM 19.4 °F 4.5 °F 12.2 °F 74% 29.72 in 8.0 mi West 17.3 mph 29.9 mph N/A   Overcast
9:37 AM 17.6 °F 1.3 °F 8.6 °F 68% 29.72 in 10.0 mi WNW 19.6 mph 31.1 mph N/A   Scattered Clouds
9:54 AM 19.0 °F 4.5 °F 10.0 °F 68% 29.79 in 10.0 mi WNW 16.1 mph 29.9 mph N/A   Clear
10:54 AM 18.0 °F 0.6 °F 6.1 °F 60% 29.82 in 10.0 mi WNW 23.0 mph 29.9 mph N/A   Clear
11:54 AM 17.1 °F 2.0 °F 3.0 °F 54% 29.80 in 10.0 mi WNW 16.1 mph 21.9 mph N/A   Clear
12:54 PM 18.0 °F 5.4 °F 3.9 °F 54% 29.78 in 10.0 mi WNW 11.5 mph - N/A   Clear
1:54 PM 19.0 °F 4.5 °F 1.9 °F 47% 29.76 in 10.0 mi West 16.1 mph - N/A   Clear
2:54 PM 18.0 °F 4.2 °F 3.0 °F 52% 29.76 in 10.0 mi West 13.8 mph 23.0 mph N/A   Clear
3:54 PM 17.1 °F 4.3 °F 3.0 °F 54% 29.75 in 10.0 mi West 11.5 mph - N/A   Clear
4:54 PM 16.0 °F 2.3 °F 3.9 °F 59% 29.76 in 10.0 mi West 12.7 mph 23.0 mph N/A   Mostly Cloudy
5:54 PM 15.1 °F 0.5 °F 1.9 °F 56% 29.77 in 10.0 mi West 13.8 mph 29.9 mph N/A   Mostly Cloudy
6:54 PM 14.0 °F 0.5 °F 1.9 °F 59% 29.76 in 10.0 mi West 11.5 mph 26.5 mph N/A   Partly Cloudy
7:54 PM 15.1 °F -2.9 °F 3.9 °F 61% 29.74 in 10.0 mi West 21.9 mph 27.6 mph N/A   Mostly Cloudy
8:54 PM 12.9 °F -4.4 °F 3.0 °F 65% 29.74 in 10.0 mi West 18.4 mph 28.8 mph 0.00 in   Mostly Cloudy
9:03 PM 12.2 °F -7.9 °F 1.4 °F 62% 29.67 in 10.0 mi West 25.3 mph 34.5 mph N/A   Mostly Cloudy
9:31 PM 12.2 °F -4.8 °F 3.2 °F 67% 29.67 in 10.0 mi West 17.3 mph 27.6 mph N/A   Overcast
9:54 PM 12.9 °F -4.4 °F 3.0 °F 65% 29.74 in 10.0 mi West 18.4 mph 26.5 mph N/A   Overcast
10:54 PM 12.9 °F -4.4 °F 5.0 °F 71% 29.74 in 10.0 mi West 18.4 mph 23.0 mph N/A   Overcast
11:54 PM 14.0 °F -2.0 °F 5.0 °F 67% 29.75 in 9.0 mi West 16.1 mph 24.2 mph N/A   Overcast